Weather reports worldwide

Advertisment
Falconara, Italy (16191): temperature & dewpoint: 13.03.2019 09:00:00 - 19.03.2019 09:00:00 (CET)Falconara, Italy (16191): wind speed: 13.03.2019 09:00:00 - 19.03.2019 09:00:00 (CET)Falconara, Italy (16191): wind direction: 13.03.2019 09:00:00 - 19.03.2019 09:00:00 (CET)Falconara, Italy (16191): reduced air pressure: 13.03.2019 09:00:00 - 19.03.2019 09:00:00 (CET)Falconara, Italy (16191): visibility: 13.03.2019 09:00:00 - 19.03.2019 09:00:00 (CET)Falconara, Italy (16191): precipitation: 13.03.2019 09:00:00 - 19.03.2019 09:00:00 (CET)
Date & Time tt [°C] td [°C] ff [km/h] ff [kn] dd ppp [hPa] vv [km] rr [mm]
19.03.2019 09:00:00 9,0 6,0 11 6 WNW - 10 -
19.03.2019 08:00:00 8,0 6,0 18 10 NW - 5 -
19.03.2019 07:00:00 8,2 7,4 21 11 NNW 1018,0 4,0 -
19.03.2019 06:00:00 9,0 8,0 11 6 NW - 6 -
19.03.2019 05:00:00 9,0 8,0 11 6 N - 10 -
19.03.2019 04:00:00 9,0 7,9 11 6 N 1016,7 10 0,0
19.03.2019 03:00:00 10,0 8,0 13 7 NNW - 10 -
19.03.2019 02:00:00 10,0 8,0 15 8 N - 10 -
19.03.2019 01:00:00 9,6 7,9 13 7 N 1017,0 10 -
19.03.2019 00:00:00 10,0 8,0 9 5 N - 10 -
18.03.2019 23:00:00 10,0 8,0 15 8 NNE - 10 -
18.03.2019 22:00:00 9,8 8,1 15 8 N 1017,0 11 0,0
18.03.2019 21:00:00 10,0 8,0 15 8 N - 10 -
18.03.2019 20:00:00 9,0 8,0 11 6 WNW - 10 -
18.03.2019 19:00:00 9,3 8,5 9 5 W 1016,2 10 -
18.03.2019 18:00:00 10,0 9,0 13 7 NW - 10 -
18.03.2019 17:00:00 11,0 8,0 16 9 NNW - 10 -
18.03.2019 16:00:00 10,7 8,5 15 8 NNW 1014,3 20 0,0
18.03.2019 15:00:00 - - - - - - - -
18.03.2019 14:00:00 12,0 9,0 22 12 NNW - 10 -
18.03.2019 13:00:00 12,5 9,3 24 13 NNW 1013,8 10 -
18.03.2019 12:00:00 17,0 8,0 18 10 W - 10 -
18.03.2019 11:00:00 17,0 8,0 8 4 W - 10 -
18.03.2019 10:00:00 16,2 9,4 8 4 NE 1012,5 25 0,0
18.03.2019 09:00:00 16,0 11,0 4 2 - - 10 -
18.03.2019 08:00:00 - - - - - - - -
18.03.2019 07:00:00 7,3 6,1 8 4 N 1011,4 20 -
18.03.2019 06:00:00 9,0 8,0 8 4 SE - 10 -
18.03.2019 05:00:00 8,0 7,0 5 3 SSE - 10 -
18.03.2019 04:00:00 7,3 6,4 2 1 N 1011,0 15 0,0
18.03.2019 03:00:00 9,0 8,0 9 5 SSE - 10 -
18.03.2019 02:00:00 8,0 8,0 8 4 SSE - 10 -
18.03.2019 01:00:00 8,0 7,7 5 3 SW 1011,8 15 -
18.03.2019 00:00:00 9,0 8,0 8 4 S - 10 -
17.03.2019 23:00:00 9,0 7,0 4 2 - - 10 -
17.03.2019 22:00:00 11,1 8,7 5 3 SSW 1012,5 15 0,0
17.03.2019 21:00:00 13,0 8,0 9 5 SSE - 10 -
17.03.2019 20:00:00 13,0 9,0 8 4 SSE - 10 -
17.03.2019 19:00:00 13,3 9,5 4 2 SSW 1012,7 20 -
17.03.2019 18:00:00 15,0 11,0 11 6 SE - 10 -
17.03.2019 17:00:00 17,0 11,0 13 7 ESE - 10 -
17.03.2019 16:00:00 17,5 11,0 13 7 ENE 1012,5 10 0,0
17.03.2019 15:00:00 17,0 11,0 16 9 ENE - 10 -
17.03.2019 14:00:00 17,0 10,0 18 10 ENE - 10 -
17.03.2019 13:00:00 17,2 8,6 16 9 ENE 1014,5 10 -
17.03.2019 12:00:00 17,0 8,0 16 9 ENE - 10 -
17.03.2019 11:00:00 - - - - - - - -
17.03.2019 10:00:00 17,5 9,3 2 1 N 1016,9 30 0,0
17.03.2019 09:00:00 14,0 8,0 5 3 SSW - 10 -
17.03.2019 08:00:00 9,0 7,0 5 3 SSW - 10 -
17.03.2019 07:00:00 5,9 4,5 4 2 N 1016,2 30 -
17.03.2019 06:00:00 5,0 4,0 4 2 SW - 10 -
17.03.2019 05:00:00 7,0 5,0 4 2 S - 10 -
17.03.2019 04:00:00 7,5 4,8 2 1 N 1016,1 10 0,0
17.03.2019 03:00:00 9,0 6,0 11 6 SSE - 10 -
17.03.2019 02:00:00 10,0 6,0 9 5 SSE - 10 -
17.03.2019 01:00:00 10,6 6,6 5 3 SSE 1016,6 10 -
17.03.2019 00:00:00 13,0 7,0 9 5 SSE - 10 -
16.03.2019 23:00:00 13,0 7,0 8 4 S - 10 -
16.03.2019 22:00:00 13,8 7,4 8 4 S 1016,4 25 0,0
16.03.2019 21:00:00 14,0 8,0 9 5 S - 10 -
16.03.2019 20:00:00 15,0 8,0 11 6 SSW - 10 -
16.03.2019 19:00:00 15,1 8,1 13 7 SSW 1015,6 25 -
16.03.2019 18:00:00 17,0 9,0 15 8 SW - 10 -
16.03.2019 17:00:00 19,0 10,0 26 14 SW - 10 -
16.03.2019 16:00:00 19,1 9,7 24 13 SW 1014,6 25 0,0
16.03.2019 15:00:00 21,0 9,0 24 13 WSW - 10 -
16.03.2019 14:00:00 22,0 9,0 22 12 WSW - 10 -
16.03.2019 13:00:00 21,8 9,0 21 11 WSW 1015,0 30 -
16.03.2019 12:00:00 22,0 7,0 22 12 WSW - 10 -
16.03.2019 11:00:00 20,0 7,0 18 10 WSW - 10 -
16.03.2019 10:00:00 19,5 7,1 15 8 WSW 1015,4 30 0,0
16.03.2019 09:00:00 18,0 8,0 13 7 SW - 10 -
16.03.2019 08:00:00 16,0 5,0 13 7 SSW - 10 -
16.03.2019 07:00:00 14,2 3,9 8 4 S 1013,5 30 -
16.03.2019 06:00:00 14,0 4,0 11 6 S - 10 -
16.03.2019 05:00:00 14,0 4,0 8 4 S - 10 -
16.03.2019 04:00:00 13,9 4,7 5 3 S 1012,5 10 0,0
16.03.2019 03:00:00 14,0 5,0 11 6 SSW - 10 -
16.03.2019 02:00:00 15,0 5,0 16 9 SSW - 10 -
16.03.2019 01:00:00 15,3 5,4 13 7 S 1012,9 10 -
16.03.2019 00:00:00 15,0 6,0 15 8 SSW - 10 -
15.03.2019 23:00:00 16,0 7,0 15 8 SSW - 10 -
15.03.2019 22:00:00 15,8 6,8 15 8 SSW 1012,6 20 0,0
15.03.2019 21:00:00 16,0 6,0 9 5 SSW - 10 -
15.03.2019 20:00:00 17,0 6,0 13 7 S - 10 -
15.03.2019 19:00:00 17,4 6,2 11 6 S 1011,5 20 -
15.03.2019 18:00:00 19,0 7,0 15 8 SSW - 10 -
15.03.2019 17:00:00 20,0 7,0 13 7 SW - 10 -
15.03.2019 16:00:00 19,8 7,3 15 8 SW 1010,8 20 0,0
15.03.2019 15:00:00 17,0 9,0 15 8 NNE - 10 -
15.03.2019 14:00:00 16,0 8,0 11 6 NE - 10 -
15.03.2019 13:00:00 15,1 7,3 11 6 NNE 1011,9 30 -
15.03.2019 12:00:00 16,0 9,0 13 7 N - 10 -
15.03.2019 11:00:00 17,0 7,0 18 10 SW - 10 -
15.03.2019 10:00:00 16,4 6,8 13 7 SSW 1011,8 30 0,0
15.03.2019 09:00:00 14,0 7,0 16 9 SW - 10 -
15.03.2019 08:00:00 11,0 6,0 11 6 SSW - 10 -
15.03.2019 07:00:00 9,5 4,3 9 5 S 1010,3 20 -
15.03.2019 06:00:00 9,0 4,0 9 5 S - 10 -
15.03.2019 05:00:00 - - - - - - - -
15.03.2019 04:00:00 9,1 3,8 9 5 SSW 1008,8 - 0,0
15.03.2019 03:00:00 - - - - - - - -
15.03.2019 02:00:00 - - - - - - - -
15.03.2019 01:00:00 9,5 1,2 11 6 SSW 1008,6 - -
15.03.2019 00:00:00 11,0 1,0 11 6 S - 10 -
14.03.2019 23:00:00 11,0 2,0 11 6 SSW - 10 -
14.03.2019 22:00:00 11,6 3,2 15 8 SSW 1009,6 20 0,0
14.03.2019 21:00:00 11,0 4,0 8 4 S - 10 -
14.03.2019 20:00:00 11,0 5,0 5 3 SW - 10 -
14.03.2019 19:00:00 10,7 5,0 4 2 SW 1010,2 20 -
14.03.2019 18:00:00 12,0 3,0 5 3 E - 10 -
14.03.2019 17:00:00 13,0 3,0 8 4 E - 10 -
14.03.2019 16:00:00 13,5 -0,3 9 5 NE 1012,0 25 0,0
14.03.2019 15:00:00 - - - - - - - -
14.03.2019 14:00:00 11,0 6,0 8 4 N - 10 -
14.03.2019 13:00:00 10,9 5,2 8 4 N 1015,1 30 -
14.03.2019 12:00:00 10,0 6,0 16 9 N - 10 -
14.03.2019 11:00:00 10,0 6,0 22 12 NW - 10 -
14.03.2019 10:00:00 9,2 6,1 18 10 NW 1015,8 30 0,0
14.03.2019 09:00:00 8,0 5,0 18 10 NW - 10 -
14.03.2019 08:00:00 7,0 5,0 18 10 WNW - 10 -
14.03.2019 07:00:00 7,6 5,5 22 12 WNW 1014,6 12 -
14.03.2019 06:00:00 8,0 5,0 16 9 WNW - 10 -
14.03.2019 05:00:00 9,0 6,0 26 14 NNW - 10 -
14.03.2019 04:00:00 8,7 6,3 18 10 NNW 1012,9 10 0,0
14.03.2019 03:00:00 9,0 7,0 18 10 NNW - 10 -
14.03.2019 02:00:00 7,0 6,0 9 5 SSW - 10 -
14.03.2019 01:00:00 6,9 5,4 11 6 SW 1013,4 10 -
14.03.2019 00:00:00 7,0 5,0 16 9 SSW - 10 -
13.03.2019 23:00:00 7,0 5,0 16 9 S - 10 -
13.03.2019 22:00:00 8,0 5,9 13 7 S 1012,3 12 0,0
13.03.2019 21:00:00 9,0 6,0 8 4 SW - 10 -
13.03.2019 20:00:00 9,0 6,0 5 3 - - 10 -
13.03.2019 19:00:00 10,1 5,0 9 5 NE 1010,8 10 -
13.03.2019 18:00:00 11,0 3,0 4 2 - - 10 -
13.03.2019 17:00:00 11,0 3,0 2 1 - - 10 -
13.03.2019 16:00:00 10,9 2,2 9 5 SE 1011,0 60 0,0
13.03.2019 15:00:00 10,0 5,0 8 4 SE - 10 -
13.03.2019 14:00:00 11,0 6,0 11 6 E - 10 -
13.03.2019 13:00:00 13,5 4,3 11 6 W 1013,4 10 -
13.03.2019 12:00:00 15,0 3,0 11 6 NW - 10 -
13.03.2019 11:00:00 14,0 0,0 4 2 - - 10 -
13.03.2019 10:00:00 14,0 -1,0 5 3 SSW - 10 -
13.03.2019 09:00:00 12,0 -2,0 5 3 S - 10 -

tt = temperature
td = dewpoint
ff = wind speed
dd = wind direction
ppp = reduced air pressure
vv = visibility
rr = precipitation

Next stations